Terug naar catalogus

STARLINK-5309

ActiefCommunicatieVLEO
NORAD 55310·PAYLOAD·🇺🇸 United States

Gelanceerd Jan 19, 2023 vanaf Vandenberg Space Force Base

Loading…

Volgende Passages (komende 24 uur)

TLE

VersSource: CelesTrak SupGP

Epoch: Sep 14, 2026, 21:37 UTC

1 55310C 23010AT  26257.90118056  .00733700  00000+0  60087-1 0  2570
2 55310  70.0005 247.4649 0003075 268.3962  42.0805 14.98850410    15

Volg STARLINK-5309 in realtime met AllMySat

Download on the App Store